Sakura Rocket - Orbit

View from above orbital plane
View from above orbital plane
View from above satellite
View from above satellite

Ground track
Ground track

The orbit data is extracted from the following two-line orbital elements,

1 10517U 77118B   13144.44329955  .00000820  00000-0  13689-3 0  4953
2 10517 028.6609 140.1793 0862012 151.4143 343.0199 13.36171764710152
Epoch (UTC): 24 May 2013 10:38:21
Eccentricity: 0.0862012
inclination: 28.6609°
perigee height: 477 km
apogee height: 1770 km
right ascension of ascending node: 140.1793°
argument of perigee: 151.4143°
revolutions per day: 13.36171764
mean anomaly at epoch: 343.0199°
orbit number at epoch: 71015

The dashed part of the orbit path shows where the satellite is in the earth's shadow,  

Developed and maintained by Chris Peat, Heavens-Above GmbH. Please read the updated FAQ before sending e-mail. Imprint. DLR